Location: Arborea
(39.7744°N, 8.5819°E)
Time: 03:46:55
(UTC+00:00)

ARGOS - Pass Details

Date: 24 October 2021
Orbit: 820 x 834 km, 98.4° (Epoch: 27 November)

Event Time Altitude Azimuth Distance (km) Brightness Sun altitude
Rises 18:17:55 0° 178° (S) 3,352 6.3 -20.7°
Reaches altitude 10° 18:20:19 10° 183° (S) 2,425 5.6 -21.2°
Maximum altitude 18:25:34 53° 260° (W) 1,012 3.9 -22.2°
Drops below altitude 10° 18:30:52 10° 337° (NNW) 2,449 5.9 -23.2°
Sets 18:33:18 0° 342° (NNW) 3,389 6.6 -23.6°
